GW4681 Weather Reports


Display with metric or nautical units.
time (UTC)temp
F
wind
direction
speed
MPH
gust
MPH
rain 1hr
in
rain 24hr
in
rain mn
in
humidity
%
barometer
mb
20260506025507 71 48 3.0 8.0 0.00 0.00 0.00 29 1009.5
20260506025006 71 20 4.0 8.0 0.00 0.00 0.00 29 1009.5
20260506024524 72 37 3.0 7.0 0.00 0.00 0.00 29 1009.4
20260506024007 73 15 3.0 12.0 0.00 0.00 0.00 28 1009.3
20260506023509 73 1 5.0 12.0 0.00 0.00 0.00 27 1009.2
20260506023027 74 31 5.0 12.0 0.00 0.00 0.00 27 1009.1
20260506022510 74 51 4.0 10.0 0.00 0.00 0.00 27 1009.0
20260506022012 75 32 4.0 10.0 0.00 0.00 0.00 26 1008.9
20260506021533 75 96 4.0 9.0 0.00 0.00 0.00 26 1008.9
20260506021002 75 68 5.0 9.0 0.00 0.00 0.00 26 1008.8
20260506020503 76 6 4.0 11.0 0.00 0.00 0.00 26 1008.8
20260506020005 76 49 4.0 12.0 0.00 0.00 0.00 25 1008.7
20260506015504 76 74 4.0 12.0 0.00 0.00 0.00 25 1008.6
20260506015006 76 86 4.0 13.0 0.00 0.00 0.00 25 1008.6
20260506014505 76 37 5.0 15.0 0.00 0.00 0.00 25 1008.5
20260506014003 76 61 7.0 15.0 0.00 0.00 0.00 25 1008.5
20260506013504 77 47 5.0 13.0 0.00 0.00 0.00 24 1008.5
20260506013010 77 23 3.0 13.0 0.00 0.00 0.00 24 1008.5
20260506012503 77 93 4.0 13.0 0.00 0.00 0.00 25 1008.4
20260506012003 77 360 4.0 12.0 0.00 0.00 0.00 25 1008.4
20260506011514 78 110 5.0 14.0 0.00 0.00 0.00 25 1008.3
20260506011012 77 34 6.0 14.0 0.00 0.00 0.00 24 1008.3
20260506010502 78 70 7.0 14.0 0.00 0.00 0.00 24 1008.3
20260506010005 78 86 6.0 14.0 0.00 0.00 0.00 24 1008.3
20260506005503 78 20 5.0 16.0 0.00 0.00 0.00 23 1008.3
20260506005002 78 53 6.0 16.0 0.00 0.00 0.00 23 1008.3
20260506004505 78 39 8.0 16.0 0.00 0.00 0.00 23 1008.1
20260506004004 78 34 6.0 15.0 0.00 0.00 0.00 23 1008.3
20260506003504 78 82 6.0 15.0 0.00 0.00 0.00 22 1008.2
20260506003010 78 25 5.0 14.0 0.00 0.00 0.00 23 1008.3
20260506002506 78 48 8.0 16.0 0.00 0.00 0.00 22 1008.3
20260506002004 78 10 9.0 16.0 0.00 0.00 0.00 22 1008.4
20260506001512 79 31 6.0 15.0 0.00 0.00 0.00 23 1008.3
20260506001004 79 30 9.0 15.0 0.00 0.00 0.00 21 1008.4
20260506000503 79 4 7.0 14.0 0.00 0.00 0.00 21 1008.5
20260506000015 79 36 5.0 13.0 0.00 0.00 0.00 23 1008.4
20260505235507 79 27 5.0 15.0 0.00 0.00 0.00 23 1008.3
20260505235002 79 40 7.0 15.0 0.00 0.00 0.00 22 1008.4
20260505234508 79 36 6.0 17.0 0.00 0.00 0.00 21 1008.5
20260505234004 79 51 6.0 17.0 0.00 0.00 0.00 20 1008.5
20260505233505 79 39 7.0 15.0 0.00 0.00 0.00 22 1008.5
20260505233008 79 59 6.0 14.0 0.00 0.00 0.00 23 1008.5
20260505232503 79 40 5.0 15.0 0.00 0.00 0.00 23 1008.6
20260505232003 79 71 8.0 15.0 0.00 0.00 0.00 24 1008.6
20260505231510 79 30 5.0 14.0 0.00 0.00 0.00 23 1008.7
20260505231002 79 49 9.0 16.0 0.00 0.00 0.00 23 1008.7
20260505230502 79 24 6.0 16.0 0.00 0.00 0.00 22 1008.6
20260505230014 79 40 8.0 14.0 0.00 0.00 0.00 22 1008.8
20260505225506 79 359 4.0 9.0 0.00 0.00 0.00 26 1008.7
20260505225008 78 324 5.0 15.0 0.00 0.00 0.00 25 1008.7
20260505224519 78 13 7.0 15.0 0.00 0.00 0.00 25 1008.9
20260505224007 78 50 10.0 17.0 0.00 0.00 0.00 24 1008.8
20260505223502 78 359 6.0 17.0 0.00 0.00 0.00 24 1008.9
20260505223005 78 3 9.0 17.0 0.00 0.00 0.00 24 1008.9
20260505222504 78 8 6.0 17.0 0.00 0.00 0.00 24 1008.9
20260505222003 78 37 7.0 17.0 0.00 0.00 0.00 25 1008.9
20260505221505 78 8 6.0 15.0 0.00 0.00 0.00 23 1009.0
20260505221003 78 71 7.0 15.0 0.00 0.00 0.00 23 1009.0
20260505220502 78 39 7.0 16.0 0.00 0.00 0.00 23 1009.1
20260505220022 78 1 5.0 17.0 0.00 0.00 0.00 24 1009.1
20260505215503 77 59 3.0 17.0 0.00 0.00 0.00 25 1009.2
20260505215003 77 22 3.0 14.0 0.00 0.00 0.00 25 1009.3
20260505214523 77 7 4.0 14.0 0.00 0.00 0.00 25 1009.4
20260505214007 77 34 7.0 14.0 0.00 0.00 0.00 25 1009.5
20260505213508 77 4 3.0 10.0 0.00 0.00 0.00 27 1009.5
20260505213019 77 41 3.0 14.0 0.00 0.00 0.00 27 1009.6
20260505212510 76 68 6.0 16.0 0.00 0.00 0.00 25 1009.7
20260505212005 76 44 8.0 16.0 0.00 0.00 0.00 25 1009.8
20260505211505 76 7 6.0 10.0 0.00 0.00 0.00 28 1009.8
20260505211003 77 21 3.0 11.0 0.00 0.00 0.00 27 1009.9
20260505210504 76 27 6.0 11.0 0.00 0.00 0.00 29 1010.0
20260505210007 76 10 4.0 9.0 0.00 0.00 0.00 28 1010.0
20260505205507 76 90 5.0 12.0 0.00 0.00 0.00 28 1010.0
20260505205006 76 34 4.0 12.0 0.00 0.00 0.00 29 1010.0
20260505204512 76 1 6.0 14.0 0.00 0.00 0.00 31 1010.1
20260505204009 75 54 5.0 14.0 0.00 0.00 0.00 28 1010.1
20260505203507 75 61 4.0 8.0 0.00 0.00 0.00 30 1010.2
20260505203020 74 49 4.0 12.0 0.00 0.00 0.00 29 1010.3
20260505202508 74 322 3.0 12.0 0.00 0.00 0.00 28 1010.3
20260505202010 74 349 6.0 11.0 0.00 0.00 0.00 29 1010.4
20260505201525 74 23 4.0 9.0 0.00 0.00 0.00 31 1010.3
20260505201007 74 1 4.0 11.0 0.00 0.00 0.00 30 1010.4
20260505200504 73 1 4.0 11.0 0.00 0.00 0.00 32 1010.5
20260505200008 74 1 4.0 9.0 0.00 0.00 0.00 31 1010.5
20260505195504 73 12 5.0 9.0 0.00 0.00 0.00 32 1010.5
20260505195003 73 349 3.0 8.0 0.00 0.00 0.00 30 1010.4
20260505194527 73 360 3.0 11.0 0.00 0.00 0.00 30 1010.6
20260505194004 73 6 5.0 11.0 0.00 0.00 0.00 30 1010.6
20260505193504 73 323 3.0 10.0 0.00 0.00 0.00 31 1010.6
20260505193032 73 1 4.0 10.0 0.00 0.00 0.00 32 1010.7
20260505192507 72 49 4.0 10.0 0.00 0.00 0.00 30 1010.7
20260505192007 72 310 3.0 9.0 0.00 0.00 0.00 31 1010.8
20260505191520 72 359 5.0 11.0 0.00 0.00 0.00 29 1010.9
20260505191009 72 304 5.0 11.0 0.00 0.00 0.00 30 1011.0
20260505190510 72 312 4.0 7.0 0.00 0.00 0.00 30 1011.0
20260505190026 72 343 4.0 10.0 0.00 0.00 0.00 29 1011.2
20260505185509 71 221 4.0 10.0 0.00 0.00 0.00 30 1011.2
20260505185003 71 284 4.0 10.0 0.00 0.00 0.00 30 1011.2
20260505184507 71 327 2.0 10.0 0.00 0.00 0.00 34 1011.2
20260505184004 71 288 3.0 10.0 0.00 0.00 0.00 30 1011.2
20260505183503 71 297 2.0 8.0 0.00 0.00 0.00 31 1011.2
20260505183015 71 224 4.0 8.0 0.00 0.00 0.00 31 1011.3
20260505182504 71 248 2.0 5.0 0.00 0.00 0.00 30 1011.4
20260505182006 71 233 1.0 5.0 0.00 0.00 0.00 32 1011.4
20260505181517 71 359 2.0 5.0 0.00 0.00 0.00 31 1011.4
20260505181008 71 359 2.0 4.0 0.00 0.00 0.00 31 1011.4
20260505180509 71 290 1.0 4.0 0.00 0.00 0.00 33 1011.4
20260505180040 71 67 0.0 7.0 0.00 0.00 0.00 32 1011.5
20260505175506 69 126 0.0 7.0 0.00 0.00 0.00 33 1011.5
20260505175007 69 239 3.0 6.0 0.00 0.00 0.00 33 1011.5
20260505174535 69 151 3.0 9.0 0.00 0.00 0.00 34 1011.5
20260505174008 69 252 5.0 9.0 0.00 0.00 0.00 32 1011.5
20260505173504 69 259 1.0 9.0 0.00 0.00 0.00 33 1011.4
20260505173011 69 275 3.0 6.0 0.00 0.00 0.00 33 1011.4
20260505172503 68 318 0.0 10.0 0.00 0.00 0.00 33 1011.3
20260505172004 68 333 4.0 10.0 0.00 0.00 0.00 34 1011.4
20260505171518 69 258 2.0 9.0 0.00 0.00 0.00 35 1011.3
20260505171006 68 328 3.0 9.0 0.00 0.00 0.00 33 1011.3
20260505170507 68 221 4.0 7.0 0.00 0.00 0.00 34 1011.3
20260505170026 68 238 2.0 6.0 0.00 0.00 0.00 37 1011.2
20260505165507 67 359 2.0 7.0 0.00 0.00 0.00 35 1011.2
20260505165007 67 275 2.0 11.0 0.00 0.00 0.00 34 1011.2
20260505164504 67 290 3.0 11.0 0.00 0.00 0.00 34 1011.2
20260505164007 67 229 1.0 9.0 0.00 0.00 0.00 35 1011.2
20260505163503 66 278 3.0 9.0 0.00 0.00 0.00 35 1011.2
20260505163009 66 218 5.0 9.0 0.00 0.00 0.00 34 1011.2
20260505162504 66 223 4.0 10.0 0.00 0.00 0.00 35 1011.2
20260505162003 66 274 5.0 12.0 0.00 0.00 0.00 34 1011.3
20260505161516 66 226 5.0 12.0 0.00 0.00 0.00 35 1011.2
20260505161005 66 184 4.0 13.0 0.00 0.00 0.00 34 1011.1
20260505160505 66 250 5.0 13.0 0.00 0.00 0.00 35 1011.1
20260505153009 65 212 5.0 15.0 0.00 0.00 0.00 37 1010.9
20260505152504 65 239 6.0 15.0 0.00 0.00 0.00 36 1010.9
20260505152006 65 184 6.0 14.0 0.00 0.00 0.00 36 1010.9
20260505151511 65 314 6.0 13.0 0.00 0.00 0.00 39 1010.9
20260505151004 64 247 5.0 13.0 0.00 0.00 0.00 44 1010.9
20260505150505 63 238 5.0 11.0 0.00 0.00 0.00 47 1010.8
20260505140505 56 213 3.0 9.0 0.00 0.00 0.00 59 1010.0
20260505125004 53 318 0.0 0.0 0.00 0.00 0.00 63 1008.7
20260505124519 54 297 0.0 1.0 0.00 0.00 0.00 61 1008.6
20260505124006 54 220 0.0 3.0 0.00 0.00 0.00 61 1008.6
20260505123508 54 219 1.0 3.0 0.00 0.00 0.00 61 1008.6
20260505123023 54 208 0.0 3.0 0.00 0.00 0.00 60 1008.6
20260505122508 55 290 0.0 2.0 0.00 0.00 0.00 60 1008.3
20260505122008 55 316 0.0 3.0 0.00 0.00 0.00 60 1008.1
20260505121527 55 312 1.0 3.0 0.00 0.00 0.00 59 1008.0
20260505121008 55 304 2.0 3.0 0.00 0.00 0.00 59 1007.9
20260505120508 55 313 0.0 3.0 0.00 0.00 0.00 58 1007.7
20260505120030 55 354 1.0 3.0 0.00 0.00 0.00 58 1007.7
20260505115510 55 354 2.0 3.0 0.00 0.00 0.00 58 1007.7
20260505115007 55 330 1.0 3.0 0.00 0.00 0.00 57 1007.6
20260505114527 56 330 1.0 3.0 0.00 0.00 0.00 56 1007.6
20260505114005 56 330 1.0 3.0 0.00 0.00 0.00 56 1007.5
20260505113504 55 300 1.0 2.0 0.00 0.00 0.00 56 1007.6
20260505113028 55 276 0.0 2.0 0.00 0.00 0.00 57 1007.6
20260505112507 55 266 0.0 2.0 0.00 0.00 0.00 57 1007.6
20260505112011 55 266 0.0 3.0 0.00 0.00 0.00 56 1007.6
20260505111539 56 266 1.0 3.0 0.00 0.00 0.00 56 1007.4
20260505111007 56 350 0.0 2.0 0.00 0.00 0.00 55 1007.3
20260505110508 56 350 0.0 1.0 0.00 0.00 0.00 54 1007.2
20260505102006 57 18 2.0 5.0 0.00 0.00 0.00 52 1006.5
20260505101522 57 4 2.0 6.0 0.00 0.00 0.00 52 1006.5
20260505101009 57 18 3.0 6.0 0.00 0.00 0.00 52 1006.4
20260505100503 57 11 3.0 5.0 0.00 0.00 0.00 52 1006.3
20260505100004 57 1 3.0 5.0 0.00 0.00 0.00 52 1006.4
20260505095504 57 5 3.0 5.0 0.00 0.00 0.00 52 1006.4
20260505095003 57 4 2.0 6.0 0.00 0.00 0.00 52 1006.4
20260505094510 58 354 3.0 7.0 0.00 0.00 0.00 52 1006.5
20260505094005 58 3 2.0 7.0 0.00 0.00 0.00 51 1006.4
20260505093503 58 360 2.0 6.0 0.00 0.00 0.00 50 1006.3
20260505093014 58 360 3.0 8.0 0.00 0.00 0.00 50 1006.2
20260505092505 58 4 4.0 8.0 0.00 0.00 0.00 50 1006.2
20260505092006 58 8 4.0 8.0 0.00 0.00 0.00 50 1006.1
20260505091519 58 6 4.0 8.0 0.00 0.00 0.00 50 1006.1
20260505091007 58 354 4.0 8.0 0.00 0.00 0.00 49 1006.1
20260505090508 58 26 3.0 7.0 0.00 0.00 0.00 49 1006.1
20260505090030 58 360 3.0 7.0 0.00 0.00 0.00 49 1006.1
20260505085508 58 342 2.0 5.0 0.00 0.00 0.00 49 1006.1
20260505085005 59 340 2.0 6.0 0.00 0.00 0.00 48 1006.2
20260505084507 59 335 3.0 6.0 0.00 0.00 0.00 48 1006.1
20260505084003 59 307 3.0 6.0 0.00 0.00 0.00 47 1006.2
20260505083503 59 283 3.0 6.0 0.00 0.00 0.00 46 1006.1
20260505083014 60 324 2.0 6.0 0.00 0.00 0.00 46 1006.1
20260505082506 61 290 3.0 8.0 0.00 0.00 0.00 44 1006.0
20260505082003 61 330 3.0 8.0 0.00 0.00 0.00 43 1006.0
20260505081522 62 340 4.0 10.0 0.00 0.00 0.00 42 1005.9
20260505081009 62 347 4.0 10.0 0.00 0.00 0.00 43 1005.9
20260505080508 62 4 4.0 10.0 0.00 0.00 0.00 43 1005.9
20260505080033 62 1 4.0 9.0 0.00 0.00 0.00 42 1005.9
20260505075506 62 1 4.0 8.0 0.00 0.00 0.00 42 1005.9
20260505075012 63 8 3.0 8.0 0.00 0.00 0.00 40 1005.9
20260505074527 64 1 4.0 10.0 0.00 0.00 0.00 39 1005.8
20260505074008 64 349 4.0 10.0 0.00 0.00 0.00 38 1005.8
20260505073504 64 31 5.0 12.0 0.00 0.00 0.00 38 1005.9
20260505073012 64 359 5.0 12.0 0.00 0.00 0.00 38 1005.8
20260505072504 64 9 5.0 10.0 0.00 0.00 0.00 38 1005.8
20260505072004 64 44 5.0 10.0 0.00 0.00 0.00 39 1005.7
20260505071511 64 30 5.0 8.0 0.00 0.00 0.00 39 1005.7
20260505071011 64 17 4.0 9.0 0.00 0.00 0.00 40 1005.7
20260505070505 64 11 4.0 9.0 0.00 0.00 0.00 39 1005.7
20260505070018 64 30 3.0 9.0 0.00 0.00 0.00 39 1005.7
20260505065505 64 24 3.0 8.0 0.00 0.00 0.00 39 1005.7
20260505065007 65 2 3.0 8.0 0.00 0.00 0.00 39 1005.6
20260505064525 65 342 4.0 8.0 0.00 0.00 0.00 38 1005.5
20260505064009 65 15 4.0 9.0 0.00 0.00 0.00 38 1005.5
20260505063508 65 359 3.0 9.0 0.00 0.00 0.00 38 1005.4
20260505063024 65 13 4.0 9.0 0.00 0.00 0.00 38 1005.4
20260505062512 65 52 4.0 9.0 0.00 0.00 0.00 38 1005.3
20260505062012 65 14 4.0 9.0 0.00 0.00 0.00 38 1005.2
20260505061514 65 37 4.0 9.0 0.00 0.00 0.00 37 1005.2
20260505061009 66 359 5.0 11.0 0.00 0.00 0.00 37 1005.2
20260505060504 66 11 6.0 11.0 0.00 0.00 0.00 37 1005.2
20260505060015 65 22 6.0 11.0 0.00 0.00 0.00 38 1005.1
20260505055506 65 358 6.0 12.0 0.00 0.00 0.00 38 1005.1
20260505055007 65 19 4.0 12.0 0.00 0.00 0.00 39 1005.1
20260505054524 65 6 6.0 14.0 0.00 0.00 0.00 39 1005.1
20260505054012 65 11 6.0 14.0 0.00 0.00 0.00 39 1005.1
20260505053512 66 31 6.0 11.0 0.00 0.00 0.00 40 1005.0
20260505053025 65 22 6.0 11.0 0.00 0.00 0.00 40 1005.0
20260505052511 65 23 6.0 11.0 0.00 0.00 0.00 41 1005.1
20260505052008 65 1 6.0 10.0 0.00 0.00 0.00 41 1005.1
20260505051529 65 13 5.0 9.0 0.00 0.00 0.00 42 1005.1
20260505051010 65 1 4.0 7.0 0.00 0.00 0.00 42 1005.2
20260505050513 65 18 3.0 8.0 0.00 0.00 0.00 42 1005.1
20260505041532 68 4 2.0 5.0 0.00 0.00 0.00 39 1004.9
20260505041007 69 34 3.0 7.0 0.00 0.00 0.00 38 1004.8
20260505040510 70 4 2.0 8.0 0.00 0.00 0.00 37 1004.8
20260505040030 70 31 3.0 8.0 0.00 0.00 0.00 36 1004.7
20260505035507 70 27 3.0 10.0 0.00 0.00 0.00 35 1004.7
20260505035009 70 43 5.0 10.0 0.00 0.00 0.00 35 1004.7
20260505034516 70 6 5.0 9.0 0.00 0.00 0.00 35 1004.6
20260505034007 70 17 4.0 8.0 0.00 0.00 0.00 36 1004.6
20260505033510 70 6 4.0 8.0 0.00 0.00 0.00 36 1004.6
20260505033022 71 52 4.0 8.0 0.00 0.00 0.00 35 1004.5
20260505032503 71 11 3.0 7.0 0.00 0.00 0.00 35 1004.5
20260505032004 72 18 4.0 7.0 0.00 0.00 0.00 34 1004.5
20260505031505 72 9 3.0 7.0 0.00 0.00 0.00 33 1004.3
20260505031003 73 13 2.0 8.0 0.00 0.00 0.00 33 1004.2
20260505030504 73 46 4.0 8.0 0.00 0.00 0.00 32 1004.1
20260505030008 74 22 3.0 8.0 0.00 0.00 0.00 31 1004.1